Temperature
10 10 10 11 12 13 13 13 13 15 16 15 14 14 15 16 16 16 17 17 17 17 18 18 18 18 19 19 19 19 19 19 18 17 16 16 15 15 14 14 13 13 13 13
9 9 11 13 13 13 12 12 12 13 15 14 13 13 14 15 15 16 16 17 17 17 17 17 18 18 18 18 18 19 19 18 18 18 17 17 15 14 14 14 13 13 13 13
10 11 12 12 12 11 11 11 11 12 12 12 12 12 14 16 16 16 16 17 17 17 17 17 17 17 17 18 18 18 18 18 17 17 16 15 15 14 14 13 13 13 13 13
10 11 11 11 11 11 11 12 12 11 10 10 12 10 13 16 16 16 17 17 17 17 17 17 17 17 17 17 17 17 17 17 17 16 16 16 16 15 14 14 13 13 13 12
10 11 10 10 11 11 11 11 11 10 10 8 10 9 11 15 15 16 16 18 17 17 17 17 17 17 17 17 17 17 17 17 17 16 16 16 16 16 15 14 13 12 12 12
11 11 11 10 11 11 11 10 10 9 8 7 9 10 11 15 17 17 17 18 17 17 16 16 16 16 16 16 16 16 16 16 16 15 15 15 15 15 15 14 12 12 12 12
9 9 10 10 10 10 10 8 8 8 7 7 11 11 12 16 17 17 17 17 17 16 16 15 15 15 15 15 15 15 16 16 15 15 14 13 13 15 15 15 13 12 12 11
8 8 9 9 9 9 9 8 8 8 9 11 13 12 14 16 17 17 17 16 16 15 15 14 14 14 14 14 15 15 15 15 14 13 13 12 12 13 14 13 13 12 11 11
9 9 10 10 10 10 8 8 9 8 8 7 9 12 14 16 16 16 16 16 15 15 14 14 13 13 13 14 14 14 14 14 13 12 12 11 11 12 12 12 11 11 11 10
10 9 9 10 9 9 9 9 7 6 6 7 9 12 13 15 14 14 14 14 14 14 13 13 13 12 13 13 13 13 13 13 12 12 11 10 11 11 11 11 11 10 10 9
10 8 8 8 8 8 8 8 8 7 7 7 7 11 15 14 14 13 13 14 13 13 12 12 12 12 12 12 12 12 12 12 11 10 10 10 10 10 10 10 10 10 9 8
10 8 7 8 10 10 9 8 7 6 7 7 7 9 14 13 13 13 12 12 12 11 11 11 11 11 11 11 11 11 11 11 10 10 9 9 9 9 9 9 9 8 8 7
9 7 6 8 9 9 9 9 9 8 7 7 7 8 13 13 12 12 11 11 10 10 10 10 10 10 10 10 10 10 10 9 9 9 8 8 8 8 8 8 8 7 7 7
10 7 7 8 8 8 8 8 9 7 6 7 7 9 11 11 11 10 10 9 9 9 9 9 8 9 9 9 9 8 8 8 8 7 7 7 7 7 7 7 6 6 6 6
9 7 7 8 9 9 9 9 9 8 7 7 8 9 10 10 10 9 9 8 8 8 7 7 7 7 7 7 7 7 7 6 6 6 5 5 6 6 6 6 6 6 5 5
8 7 7 7 9 9 9 10 10 9 9 9 8 9 10 10 9 9 8 7 7 7 6 6 6 6 6 6 5 5 5 5 5 5 4 4 5 5 5 5 5 5 5 4
7 7 7 8 10 10 9 11 10 10 10 9 9 9 10 9 9 7 6 6 6 6 6 5 5 4 4 4 4 4 4 3 3 3 3 3 4 5 5 5 5 4 4 3
8 7 7 7 8 8 11 12 11 10 10 10 10 10 10 9 8 6 5 5 5 5 4 4 4 3 3 3 3 3 2 2 2 2 2 3 4 4 4 4 4 3 3 3
8 7 7 7 8 9 12 11 11 10 10 10 10 9 9 9 8 5 4 4 3 3 3 2 2 2 1 1 1 1 1 1 1 1 2 3 4 4 4 3 3 2 2 2
8 7 7 7 7 8 12 11 11 9 9 10 9 9 8 8 8 5 3 2 2 2 1 1 1 0 0 0 0 0 -0 0 0 1 2 3 3 3 3 2 2 2 1 1
7 7 6 7 7 9 12 12 11 10 10 10 9 8 7 6 5 3 2 1 1 0 0 0 -0 -0 -1 -1 -0 -0 -0 0 1 2 2 2 2 2 2 2 1 1 1 0
8 7 7 7 7 8 12 12 11 10 10 9 8 7 6 5 4 3 2 1 0 -0 -1 -1 -1 -1 -1 -1 -0 -0 0 1 2 2 2 2 2 2 1 1 1 0 -0 -0
10 10 9 9 9 11 13 12 11 10 9 8 7 6 6 5 3 2 2 1 0 0 -0 -1 -1 -1 -1 -0 1 2 1 2 2 2 2 2 1 1 0 0 -0 -0 -1 -1
11 11 10 10 10 12 12 11 10 9 7 7 6 6 5 5 4 2 2 1 1 0 0 -0 0 0 0 1 2 3 2 2 2 2 1 1 1 0 -0 -0 -1 -1 -2 -2
10 10 9 9 10 11 10 9 8 7 6 6 5 5 5 5 3 2 2 1 1 1 0 1 1 2 1 2 2 2 2 2 2 1 1 0 -0 -0 -1 -1 -2 -2 -3 -3
10 10 9 10 10 10 9 8 8 7 6 5 5 4 4 4 3 2 2 1 1 1 1 2 2 2 2 2 2 1 1 1 1 1 0 -0 -1 -1 -1 -2 -2 -3 -3 -4
Wind_Speed
8 6 9 11 14 11 7 7 8 7 8 6 10 15 14 13 15 16 15 14 15 15 13 12 12 12 11 11 11 11 12 13 11 10 10 10 9 6 5 5 9 12 14 15
6 10 11 8 8 9 8 8 9 9 7 8 12 19 17 19 20 19 18 17 16 15 14 13 13 12 12 12 11 10 10 12 13 11 11 8 7 5 4 5 7 12 13 14
9 2 7 9 7 7 8 9 8 9 11 9 12 14 13 14 19 19 18 17 16 16 14 13 13 13 12 13 12 11 11 11 13 12 10 9 7 5 4 5 5 7 11 12
9 4 3 6 7 7 6 4 5 7 6 5 6 8 8 8 8 11 13 13 12 12 12 11 12 12 12 13 12 11 11 12 12 15 15 16 12 9 7 6 6 8 10 11
7 6 6 7 7 7 2 5 3 5 6 7 5 8 11 8 11 10 9 9 9 9 9 9 10 10 10 10 11 12 11 12 13 16 18 17 11 8 10 11 12 10 8 9
3 3 4 5 3 4 1 0 5 5 3 6 8 9 9 4 5 2 3 4 4 4 5 5 6 6 7 7 7 9 11 11 12 15 17 15 15 16 18 16 13 10 8 9
5 6 5 3 5 4 5 3 3 4 5 8 9 9 10 7 4 2 3 3 3 3 3 4 5 6 6 7 7 7 10 11 12 15 15 14 16 18 20 19 16 15 12 10
8 7 12 8 7 6 9 5 3 3 4 4 4 8 8 8 7 6 5 4 4 4 4 4 5 7 7 7 7 7 9 10 12 14 13 13 15 14 13 14 15 14 12 10
8 3 11 10 8 5 7 7 4 4 5 6 7 8 9 9 8 5 5 5 7 5 5 5 5 7 8 6 6 7 9 10 12 13 13 14 15 14 14 14 13 12 12 12
3 4 8 7 6 6 5 5 3 3 3 6 8 8 6 5 5 5 3 4 5 4 5 6 6 6 6 5 4 5 9 11 12 13 13 14 14 14 15 15 15 15 14 13
1 4 6 7 9 11 8 4 5 4 4 4 6 6 5 7 7 7 7 6 5 6 6 6 6 5 5 3 3 4 8 11 13 14 15 15 14 15 15 15 15 15 14 14
5 3 4 6 7 10 10 8 8 5 5 6 6 9 5 4 6 9 11 11 9 8 7 6 6 4 2 2 1 4 9 12 15 16 16 15 15 15 16 16 15 15 14 13
8 4 3 4 5 7 6 11 12 8 5 6 7 10 5 8 12 12 13 12 11 10 7 5 4 2 1 1 3 6 11 15 17 17 17 16 15 16 17 17 16 15 14 13
8 4 5 2 2 3 6 9 11 11 8 10 15 22 22 22 21 18 14 13 11 10 7 3 2 2 3 5 6 10 13 16 17 17 16 15 15 16 17 17 15 14 13 12
4 3 6 9 10 9 11 13 14 16 16 15 18 25 28 23 19 16 13 12 10 7 5 1 2 4 7 9 11 13 14 15 16 16 15 15 16 16 17 16 15 14 13 12
4 3 4 7 12 13 16 16 15 16 17 19 22 25 18 14 13 12 10 10 7 3 1 3 5 7 10 11 12 14 13 14 15 16 15 16 17 17 16 16 15 14 12 10
6 4 3 4 6 8 9 9 9 8 8 10 12 13 16 14 12 10 9 7 4 2 2 6 7 9 10 11 13 13 13 14 15 16 16 17 18 18 16 16 14 13 10 8
6 4 2 4 6 5 2 5 4 5 9 9 11 13 13 9 5 6 7 6 5 4 6 8 10 10 10 11 13 14 14 15 16 16 16 16 17 17 15 14 13 10 8 7
6 4 2 2 5 8 4 3 2 3 5 3 7 11 11 7 0 6 9 7 6 7 9 10 11 11 12 13 14 15 15 15 15 16 16 15 16 16 14 13 11 8 7 6
7 5 3 3 4 4 1 3 3 2 4 1 5 9 10 8 3 4 8 10 11 12 11 12 12 13 13 13 14 16 16 15 15 15 15 15 14 14 13 11 9 6 6 5
5 5 7 6 5 7 4 1 1 2 3 5 5 5 6 4 4 5 8 10 11 12 13 13 13 13 12 13 14 16 16 15 15 15 15 14 13 13 11 9 7 6 5 3
8 6 6 6 6 7 2 1 2 3 3 3 2 2 3 6 7 9 9 11 11 12 13 13 13 13 12 13 15 16 16 14 14 15 15 13 11 10 9 8 6 5 4 2
7 7 5 7 8 5 2 2 2 2 3 3 2 1 5 7 8 9 9 10 10 11 12 12 13 14 13 12 13 17 15 14 15 15 14 12 10 8 7 7 5 4 3 3
4 4 3 5 7 7 3 2 4 4 3 3 2 1 5 8 10 10 10 10 10 11 11 12 14 15 14 13 13 14 14 13 15 14 12 9 9 8 7 5 4 3 4 4
3 2 4 6 8 5 2 4 4 4 4 3 3 2 6 10 11 11 10 10 10 11 11 11 13 15 15 14 13 12 12 13 14 12 10 8 7 6 5 4 4 4 3 3
5 6 6 4 1 2 2 3 4 4 4 4 5 7 8 10 12 12 10 10 10 11 12 13 14 15 14 13 12 10 10 11 12 10 8 6 5 5 4 3 2 2 1 2
Wind_Direction
177 196 205 205 215 252 310 311 300 302 324 309 275 274 270 266 262 256 249 245 247 248 247 243 240 238 233 223 214 203 188 180 175 172 173 174 177 169 158 152 147 141 136 134
170 227 226 229 221 239 269 281 283 293 303 304 287 280 272 257 251 247 247 245 243 245 245 242 238 236 237 232 218 209 195 183 178 177 175 167 146 126 111 112 118 127 132 135
197 187 215 225 223 226 245 255 272 292 323 298 280 283 258 248 235 235 238 241 243 244 244 244 239 234 231 232 224 214 203 190 179 166 152 131 111 99 104 111 115 123 129 132
225 211 179 203 216 216 247 257 272 291 295 290 312 297 276 273 264 232 222 224 232 240 243 243 245 243 233 227 223 216 204 194 178 165 161 162 168 162 160 141 126 120 124 131
208 203 193 211 223 215 235 41 344 296 292 294 255 257 275 233 246 238 221 214 221 232 239 244 244 244 245 233 219 211 204 194 178 168 167 170 167 141 132 130 130 127 127 127
216 166 202 218 221 227 155 65 264 251 282 270 222 219 275 244 244 255 221 211 223 241 258 269 274 267 256 249 235 210 196 187 173 165 165 168 159 147 146 147 144 140 136 130
212 203 189 204 181 187 181 190 223 200 221 250 233 226 253 259 300 305 279 287 302 302 302 311 309 300 277 253 234 217 191 178 165 161 164 165 156 154 155 153 151 148 146 143
189 207 191 192 200 173 189 204 222 247 261 291 257 242 255 240 237 221 214 227 264 283 298 301 302 301 285 261 227 212 187 170 160 159 160 154 147 151 153 152 152 151 149 145
185 185 151 176 202 173 172 217 294 334 308 284 258 266 284 250 243 228 213 221 239 249 270 282 290 295 286 265 229 207 180 164 156 152 148 145 145 146 148 147 144 141 140 140
189 152 158 152 172 231 222 180 178 182 258 275 272 258 255 342 360 359 329 289 274 280 286 284 289 295 288 272 244 201 173 157 147 144 142 141 139 139 141 141 141 140 139 135
210 145 151 161 198 194 199 200 199 217 252 266 287 268 334 2 358 344 324 306 299 301 296 291 285 289 298 288 250 192 158 143 137 133 130 132 132 134 134 135 135 135 134 134
184 161 200 211 207 201 194 198 189 204 234 229 266 272 296 332 349 338 325 317 308 290 280 279 283 280 287 280 215 159 141 132 128 126 126 128 129 131 131 131 131 131 130 127
165 167 194 198 200 191 218 219 216 226 266 247 251 265 283 318 318 315 310 305 299 290 278 272 263 236 176 147 126 122 121 121 121 123 125 128 130 131 130 129 128 126 123 119
159 185 230 227 123 183 218 228 223 224 239 252 248 270 286 296 302 305 303 299 294 287 285 261 233 165 128 115 110 110 111 116 120 122 126 130 131 130 127 124 121 118 116 114
157 222 244 270 280 268 253 248 236 233 239 254 269 277 286 295 302 304 304 300 296 291 279 233 125 115 112 108 107 108 111 114 119 122 126 128 126 123 120 117 115 113 110 108
176 244 265 265 259 257 259 254 249 248 249 254 268 278 285 298 304 308 311 307 302 299 267 118 112 111 112 113 113 112 113 115 119 123 125 124 122 119 115 113 111 108 105 105
180 214 260 276 297 293 265 238 228 238 251 262 273 285 306 310 321 333 332 327 330 349 94 105 107 107 110 112 114 114 117 117 119 121 123 122 120 116 112 112 109 108 108 109
180 193 253 294 308 263 219 128 163 252 268 266 277 295 307 309 326 10 4 1 11 50 91 100 103 102 102 105 108 111 113 116 118 120 120 119 116 112 110 108 107 107 109 109
184 183 234 273 287 279 262 153 171 270 281 279 303 315 325 320 243 44 27 35 53 75 90 94 97 101 102 105 110 113 114 115 116 117 116 115 113 112 110 108 106 105 105 102
186 185 220 254 280 273 36 118 133 187 258 9 335 328 334 344 357 25 37 55 71 82 90 97 100 101 102 105 110 113 114 113 113 113 111 109 108 108 108 108 105 101 99 98
171 193 217 232 253 273 298 120 183 284 306 329 334 337 355 31 56 74 73 76 84 91 96 101 105 106 108 111 113 112 111 111 112 110 107 103 102 104 106 104 100 100 95 90
179 188 197 199 223 252 268 11 298 287 304 314 332 28 75 100 96 91 91 93 97 102 106 109 111 112 114 117 117 113 112 112 110 107 103 101 99 101 103 101 96 91 85 59
192 200 193 204 228 259 294 278 315 349 321 350 6 65 134 123 113 107 103 103 104 107 111 114 114 111 108 109 115 114 113 113 110 104 102 100 97 93 92 95 93 82 63 47
216 192 225 259 265 277 305 39 47 45 20 16 350 221 144 131 125 119 114 111 109 108 110 113 111 108 104 104 107 112 116 114 109 105 102 99 97 90 80 72 68 67 61 47
273 192 224 254 272 276 78 59 49 61 61 49 43 83 126 130 127 123 119 117 116 113 109 109 111 110 109 110 108 110 113 112 107 103 99 94 91 93 84 72 63 71 79 79
225 220 225 242 309 5 81 73 68 84 79 81 90 89 102 120 125 123 120 117 115 113 112 111 111 111 111 109 106 103 104 108 108 104 97 93 90 84 82 72 58 73 77 14
Height
1463 1466 1465 1464 1464 1461 1461 1463 1462 1456 1452 1455 1455 1453 1450 1448 1446 1444 1443 1443 1442 1442 1443 1445 1446 1448 1450 1453 1456 1458 1460 1463 1467 1469 1472 1475 1479 1483 1486 1489 1492 1495 1498 1500
1464 1464 1459 1458 1459 1462 1464 1466 1465 1461 1456 1456 1455 1448 1443 1439 1435 1434 1434 1434 1434 1435 1436 1437 1439 1441 1442 1445 1448 1451 1453 1456 1459 1462 1465 1469 1473 1477 1480 1484 1487 1490 1493 1496
1458 1458 1457 1459 1460 1464 1466 1468 1467 1465 1461 1459 1457 1445 1431 1422 1421 1423 1425 1425 1426 1428 1429 1430 1432 1434 1435 1437 1440 1443 1447 1450 1452 1456 1459 1463 1466 1470 1474 1477 1481 1485 1489 1492
1457 1456 1457 1459 1461 1463 1467 1462 1464 1466 1470 1466 1458 1458 1430 1421 1416 1414 1415 1417 1419 1421 1422 1424 1425 1427 1428 1430 1434 1436 1440 1443 1446 1449 1451 1454 1458 1461 1465 1469 1474 1479 1484 1488
1455 1455 1458 1461 1461 1462 1464 1465 1467 1468 1470 1472 1463 1464 1432 1419 1416 1411 1409 1411 1413 1416 1417 1418 1420 1421 1422 1424 1426 1429 1433 1436 1439 1441 1443 1448 1452 1455 1459 1464 1470 1475 1480 1484
1453 1455 1457 1459 1460 1462 1463 1468 1470 1470 1474 1478 1459 1457 1434 1417 1408 1405 1405 1407 1410 1412 1414 1414 1415 1416 1416 1418 1419 1421 1424 1428 1432 1434 1437 1442 1445 1448 1453 1457 1463 1469 1474 1479
1456 1456 1458 1459 1462 1465 1466 1473 1475 1474 1475 1468 1446 1442 1427 1409 1403 1403 1405 1406 1408 1410 1411 1411 1411 1412 1412 1412 1413 1415 1417 1421 1425 1428 1432 1437 1439 1443 1447 1451 1457 1463 1469 1474
1455 1455 1455 1458 1460 1463 1466 1469 1472 1471 1461 1446 1433 1431 1415 1402 1399 1400 1402 1404 1406 1407 1408 1409 1409 1408 1408 1408 1408 1409 1412 1415 1419 1424 1428 1432 1435 1439 1443 1448 1453 1459 1465 1470
1449 1450 1450 1455 1458 1460 1465 1468 1464 1468 1465 1465 1444 1424 1408 1398 1397 1398 1400 1402 1403 1404 1405 1405 1405 1404 1403 1403 1403 1405 1407 1410 1415 1419 1424 1428 1431 1435 1439 1444 1450 1456 1462 1467
1442 1450 1452 1455 1459 1461 1460 1463 1468 1475 1476 1465 1441 1425 1414 1400 1400 1399 1400 1400 1401 1401 1401 1401 1400 1399 1399 1398 1399 1400 1402 1406 1410 1415 1420 1424 1428 1432 1437 1441 1447 1453 1459 1464
1444 1451 1454 1456 1458 1458 1462 1464 1464 1466 1464 1465 1452 1428 1400 1402 1401 1401 1401 1400 1399 1398 1397 1396 1395 1394 1394 1394 1395 1396 1398 1402 1407 1411 1416 1421 1425 1430 1434 1440 1445 1451 1457 1463
1444 1449 1453 1452 1449 1450 1455 1457 1462 1469 1464 1457 1453 1430 1403 1402 1400 1401 1400 1399 1396 1394 1392 1390 1389 1389 1389 1390 1391 1393 1395 1399 1403 1408 1413 1418 1423 1427 1433 1438 1444 1451 1457 1463
1443 1451 1456 1452 1453 1450 1451 1451 1453 1457 1459 1455 1450 1427 1402 1400 1400 1400 1398 1395 1393 1390 1387 1384 1383 1383 1384 1385 1388 1390 1392 1396 1400 1406 1411 1417 1422 1426 1432 1438 1444 1451 1457 1462
1442 1448 1451 1445 1445 1446 1449 1448 1448 1453 1454 1447 1436 1418 1406 1402 1399 1396 1394 1390 1387 1385 1381 1378 1378 1379 1380 1383 1386 1388 1391 1395 1399 1405 1411 1416 1421 1426 1432 1438 1445 1452 1458 1462
1443 1446 1445 1443 1440 1439 1439 1439 1439 1442 1442 1440 1426 1417 1404 1400 1396 1392 1389 1385 1382 1379 1377 1376 1376 1378 1379 1382 1386 1388 1392 1395 1400 1406 1412 1417 1422 1427 1433 1440 1447 1453 1458 1463
1443 1444 1442 1439 1433 1431 1430 1427 1428 1428 1427 1425 1420 1410 1400 1396 1393 1388 1385 1382 1379 1377 1376 1376 1377 1378 1381 1383 1386 1389 1394 1398 1402 1408 1413 1418 1423 1429 1435 1442 1448 1454 1459 1463
1441 1443 1442 1436 1425 1425 1424 1414 1417 1418 1416 1416 1413 1406 1398 1393 1390 1388 1384 1381 1378 1377 1376 1377 1378 1380 1383 1385 1388 1392 1396 1400 1405 1410 1415 1419 1425 1431 1437 1444 1450 1455 1459 1463
1438 1440 1441 1438 1432 1429 1414 1407 1410 1413 1410 1409 1406 1401 1396 1392 1390 1388 1385 1382 1379 1378 1378 1379 1381 1383 1386 1388 1391 1395 1399 1404 1408 1413 1418 1423 1428 1434 1440 1447 1452 1456 1460 1462
1434 1438 1440 1439 1433 1422 1408 1407 1408 1411 1408 1405 1403 1399 1394 1390 1388 1388 1387 1384 1381 1380 1381 1382 1384 1386 1389 1392 1395 1398 1403 1408 1412 1417 1422 1427 1433 1438 1444 1449 1453 1457 1459 1461
1432 1436 1440 1437 1434 1425 1409 1406 1405 1410 1407 1403 1401 1398 1394 1390 1389 1393 1390 1387 1384 1383 1384 1385 1387 1390 1392 1396 1399 1402 1407 1412 1417 1422 1426 1432 1437 1442 1447 1451 1454 1457 1459 1460
1432 1435 1436 1435 1433 1420 1406 1404 1405 1410 1407 1401 1399 1397 1395 1394 1396 1396 1393 1390 1389 1388 1388 1390 1391 1394 1397 1401 1404 1408 1412 1417 1421 1426 1431 1436 1442 1446 1449 1452 1455 1457 1458 1459
1423 1427 1428 1429 1429 1422 1402 1402 1404 1404 1400 1398 1397 1396 1395 1395 1396 1395 1395 1394 1393 1393 1394 1395 1397 1400 1404 1407 1410 1413 1417 1422 1427 1432 1436 1441 1445 1448 1451 1453 1455 1456 1457 1457
1413 1414 1414 1416 1414 1403 1400 1400 1400 1399 1397 1396 1395 1395 1395 1395 1396 1396 1397 1397 1398 1399 1400 1402 1403 1406 1410 1414 1417 1419 1423 1428 1432 1437 1440 1444 1447 1450 1452 1454 1455 1456 1456 1455
1406 1405 1408 1408 1403 1399 1398 1398 1397 1396 1395 1394 1393 1393 1393 1394 1395 1397 1398 1400 1401 1403 1405 1407 1409 1411 1415 1419 1423 1426 1429 1434 1438 1441 1444 1447 1449 1451 1453 1454 1455 1454 1454 1453
1406 1405 1406 1405 1400 1398 1397 1397 1396 1395 1393 1392 1391 1392 1393 1394 1396 1398 1400 1402 1404 1406 1409 1411 1413 1416 1419 1424 1428 1432 1435 1438 1441 1444 1447 1449 1451 1452 1453 1454 1454 1453 1452 1451
1402 1403 1403 1401 1398 1397 1397 1396 1395 1393 1392 1392 1391 1392 1393 1394 1396 1399 1401 1404 1406 1409 1411 1415 1418 1420 1424 1428 1432 1436 1439 1442 1444 1446 1449 1450 1452 1452 1453 1453 1453 1451 1451 1449